User: anonymous   Login
Location: Leeds
(37.2390°N, 113.3580°W)
Time: 05:21:18
(UTC-06:00)
Language:

SL-08 RB Rocket - Orbit

View from above orbital plane
View from above orbital plane
View from above satellite
View from above satellite

Ground track
Ground track

The orbit data is extracted from the following two-line orbital elements,

1 26387U 00033D   14304.12868154  .00000864  00000-0  16046-3 0  6512
2 26387 098.0925 010.2785 0027960 141.6273 273.0792 14.67470706767026
Epoch (UTC): 31 October 2014 03:05:18
Eccentricity: 0.0027960
inclination: 98.0925°
perigee height: 649 km
apogee height: 689 km
right ascension of ascending node: 10.2785°
argument of perigee: 141.6273°
revolutions per day: 14.67470706
mean anomaly at epoch: 273.0792°
orbit number at epoch: 76702

The dashed part of the orbit path shows where the satellite is in the earth's shadow,  

DLR